Home   Weather   Besançon   Past weeks

Flag for France Past Weather in Besançon, Franche-Comté, France — Yesterday and Last 2 Weeks

Now
72 °F

Sunny.


Feels Like: 74 °F
Forecast: 62 / 82 °F
Wind: 5 mph from Southwest

Location: Dole Tavaux

Current Time: Aug 17, 2017 at 10:10:30 am

Latest Report: Aug 17, 2017 at 9:30 am


Visibility: 10 mi

Pressure: 30.12 "Hg

Humidity: 73%

Dew Point: 63 °F

Location of BesançonLocation

Past Weather in Besançon — Graph

°F

Besançon Temperature Yesterday

Maximum temperature yesterday: 82 °F (at 4:30 pm)
Minimum temperature yesterday: 59 °F (at 5:00 am)
Average temperature yesterday: 71 °F

High & Low Weather Summary for the Past Weeks

 TemperatureHumidityPressure
High90 °F (Aug 2, 5:00 pm)100% (Aug 2, 9:00 am)30.21 "Hg (Aug 2, 9:00 am)
Low50 °F (Aug 10, 6:30 am)31% (Aug 6, 8:00 pm)29.80 "Hg (Aug 8, 5:00 am)
Average69 °F71%30.07 "Hg
* Reported Aug 2 9:00 am — Aug 17 9:00 am, Besançon. Weather by CustomWeather, © 2017

Note: Actual official high and low records may vary slightly from our data, if they occured in-between our weather recording intervals... More about our weather records

Advertising

Besançon Weather History for the Previous 24 Hours

Scroll right to see more
 ConditionsComfort  
Time TempWeatherWind HumidityBarometerVisibility
9:00 am
Thu, Aug 17
70 °FPassing clouds.3 mph83%30.12 "HgN/A
8:30 am66 °FSunny.2 mph94%30.12 "Hg10 mi
8:00 am66 °FSunny.2 mph94%30.12 "Hg10 mi
7:30 am64 °FClear.1 mph94%30.12 "Hg10 mi
7:00 am63 °FClear.No wind100%30.12 "Hg10 mi
6:30 am63 °FClear.3 mph94%30.09 "Hg10 mi
6:00 am64 °FClear.2 mph94%30.09 "Hg10 mi
5:30 am64 °FPassing clouds.2 mph94%30.09 "HgN/A
5:00 am64 °FMostly cloudy.3 mph94%30.09 "HgN/A
4:30 am64 °FClear.1 mph94%30.09 "Hg10 mi
4:00 am64 °FClear.3 mph94%30.09 "Hg10 mi
3:30 am66 °FClear.2 mph94%30.09 "Hg10 mi
3:00 am66 °FClear.2 mph94%30.09 "Hg10 mi
2:00 am66 °FPassing clouds.3 mph88%30.12 "HgN/A
1:30 am68 °FClear.5 mph88%30.12 "Hg10 mi
1:00 am70 °FClear.2 mph88%30.09 "Hg10 mi
12:30 am70 °FClear.1 mph88%30.12 "Hg10 mi
12:00 am70 °FClear.2 mph83%30.12 "Hg10 mi
11:30 pm
Wed, Aug 16
70 °FClear.No wind83%30.12 "Hg10 mi
11:00 pm72 °FClear.No wind78%30.12 "Hg10 mi
10:30 pm72 °FClear.No wind78%30.12 "Hg10 mi
10:00 pm73 °FMild.1 mph74%30.12 "HgN/A
9:30 pm75 °FSunny.2 mph65%30.12 "Hg10 mi
9:00 pm77 °FSunny.No wind61%30.12 "Hg10 mi
8:30 pm79 °FSunny.2 mph54%30.09 "Hg10 mi
8:00 pm79 °FSunny.2 mph54%30.09 "Hg10 mi
7:30 pm79 °FSunny.3 mph58%30.09 "Hg10 mi
7:00 pm79 °FSunny.5 mph58%30.09 "Hg10 mi
6:30 pm81 °FSunny.2 mph51%30.09 "Hg10 mi
6:00 pm81 °FPassing clouds.3 mph51%30.09 "HgN/A
5:30 pm81 °FPassing clouds.3 mph51%30.09 "HgN/A
5:00 pm81 °FPassing clouds.3 mph51%30.09 "HgN/A
4:30 pm82 °FPassing clouds.3 mph48%30.09 "HgN/A
4:00 pm81 °FPassing clouds.5 mph51%30.09 "HgN/A
3:30 pm81 °FPassing clouds.6 mph51%30.12 "HgN/A
3:00 pm81 °FPassing clouds.5 mph51%30.12 "HgN/A
2:30 pm81 °FSunny.6 mph54%30.12 "Hg10 mi
2:00 pm79 °FPassing clouds.5 mph58%30.12 "HgN/A
1:30 pm79 °FSunny.3 mph58%30.12 "Hg10 mi
1:00 pm81 °FSunny.5 mph58%30.12 "Hg10 mi
12:30 pm79 °FPassing clouds.5 mph61%30.12 "HgN/A
12:00 pm77 °FSunny.2 mph65%30.15 "Hg10 mi
11:30 am75 °FSunny.1 mph69%30.15 "Hg10 mi
11:00 am73 °FSunny.3 mph74%30.15 "Hg10 mi
10:30 am72 °FSunny.2 mph83%30.15 "Hg10 mi
10:00 am70 °FPassing clouds.5 mph83%30.15 "HgN/A
Weather by CustomWeather, © 2017

See weather overviewHow to use our weather pages